Weather History for St Johns West Climate, NF

Change the Weather History Date:

Friday, January 17, 2014

  Actual Average Record
Temperature  
Mean Temperature 42 °F -  
Max Temperature 54 °F - - ()
Min Temperature 31 °F - - ()
Degree Days  
Heating Degree Days 22    
Moisture  
Dew Point 38 °F    
Average Humidity 95    
Maximum Humidity 98    
Minimum Humidity 91    
Precipitation  
Precipitation 0.24 in - - ()
Sea Level Pressure  
Sea Level Pressure 29.87 in    
Wind  
Wind Speed 9 mph ()    
Max Wind Speed 20 mph    
Max Gust Speed 32 mph    
T = Trace of Precipitation, MM = Missing Value Source: Averaged Metar Reports

Daily Weather History Graph

Daily Weather History Graph

Search for Another Location

Airport:

Trip Planner

Search our weather history database for the weather conditions in past years. The results will help you decide how hot, cold, wet, or windy it might be!

Date:

Astronomy

Jan. 17, 2014 Rise Set
Actual Time 7:42 AM NST 4:40 PM NST
Civil Twilight 7:08 AM NST 5:14 PM NST
Nautical Twilight 6:30 AM NST 5:52 PM NST
Astronomical Twilight 5:53 AM NST 6:29 PM NST
Moon 6:31 PM NST (1/17) 7:58 AM NST (1/17)
Length of Visible Light 10h 06m
Length of Day
8h 57m
Full, 98% of the Moon is Illuminated
Jan 17
Full
Jan 24
Last Quarter
Jan 30
New
Feb 6
First Quarter
Feb 14
Full

Hourly Weather History & Observations

Time (NST) Temp. Windchill Dew Point Humidity Pressure Visibility Wind Dir Wind Speed Gust Speed Precip Events Conditions
12:30 AM 41.5 °F 38.6 °F 40.5 °F 96% 29.92 in - ESE 4.6 mph - 0.01 in   Unknown
1:30 AM 41.9 °F 39.0 °F 41.0 °F 97% 29.88 in - South 4.6 mph - 0.01 in   Unknown
2:30 AM 42 °F - 40 °F 92% 29.83 in - SSW 8.1 mph - -  
2:30 AM 41.5 °F 36.4 °F 40.5 °F 96% 29.83 in - SSW 8.1 mph - 0.04 in   Unknown
3:30 AM 41.5 °F 35.9 °F 40.6 °F 97% 29.80 in - SSW 9.2 mph - 0.07 in   Unknown
4:30 AM 51.8 °F - 50.7 °F 96% 29.77 in - SW 16.1 mph 27.6 mph 0.01 in   Unknown
5:30 AM 53.8 °F - 52.5 °F 95% 29.76 in - SW 15.0 mph 23.0 mph 0.03 in   Unknown
6:30 AM 53.6 °F - 51.6 °F 93% 29.74 in - SW 19.6 mph 29.9 mph 0.10 in   Unknown
7:30 AM 50.7 °F - 48.9 °F 94% 29.73 in - SW 18.4 mph 29.9 mph 0.01 in   Unknown
8:30 AM 49 °F - 47 °F 92% 29.73 in - WSW 18.4 mph - -  
8:30 AM 49.5 °F - 47.5 °F 93% 29.73 in - WSW 17.3 mph 32.2 mph N/A   Unknown
9:30 AM 48.9 °F - 47.1 °F 93% 29.76 in - WSW 17.3 mph 23.0 mph N/A   Unknown
10:30 AM 46.2 °F 40.8 °F 44.2 °F 93% 29.78 in - West 11.5 mph 24.2 mph 0.01 in   Unknown
11:30 AM 43.2 °F 36.2 °F 41.7 °F 95% 29.81 in - West 13.8 mph - N/A   Unknown
12:30 PM 37.0 °F 32.4 °F 35.6 °F 95% 29.85 in - NNW 5.8 mph - N/A   Unknown
1:30 PM 34.9 °F 27.1 °F 32.5 °F 91% 29.87 in - NNW 10.4 mph 17.3 mph N/A   Unknown
2:30 PM 33 °F - 31 °F 92% 29.90 in - NNW 9.2 mph - -  
2:30 PM 32.7 °F 23.4 °F 31.5 °F 95% 29.90 in - NW 12.7 mph - N/A   Unknown
3:30 PM 32.7 °F 23.4 °F 31.6 °F 96% 29.93 in - North 12.7 mph - N/A   Unknown
4:30 PM 32.4 °F 25.3 °F 31.5 °F 96% 29.95 in - North 8.1 mph - N/A   Unknown
5:30 PM 32.5 °F 27.1 °F 31.6 °F 96% 29.98 in - North 5.8 mph - N/A   Unknown
6:30 PM 32.4 °F 26.0 °F 31.6 °F 97% 29.99 in - NNE 6.9 mph - N/A   Unknown
7:30 PM 32.2 °F 26.7 °F 31.5 °F 97% 29.99 in - North 5.8 mph - N/A   Unknown
8:30 PM 32 °F - 31 °F 96% 29.99 in - NNE 5.8 mph - -  
8:30 PM 31.8 °F 26.2 °F 31.3 °F 98% 29.99 in - NNE 5.8 mph - N/A   Unknown
9:30 PM 31.5 °F 25.8 °F 30.9 °F 98% 30.01 in - North 5.8 mph - N/A   Unknown
10:30 PM 31.5 °F 26.8 °F 30.7 °F 97% 30.01 in - North 4.6 mph - N/A   Unknown
11:30 PM 31.3 °F 25.6 °F 30.6 °F 97% 30.02 in - North 5.8 mph - N/A   Unknown